CST,Max TemperatureF,Mean TemperatureF,Min TemperatureF,Max Dew PointF,MeanDew PointF,Min DewpointF,Max Humidity, Mean Humidity, Min Humidity, Max Sea Level PressureIn, Mean Sea Level PressureIn, Min Sea Level PressureIn, Max VisibilityMiles, Mean VisibilityMiles, Min VisibilityMiles, Max Wind SpeedMPH, Mean Wind SpeedMPH, Max Gust SpeedMPH,PrecipitationIn, CloudCover, Events, WindDirDegrees
2013-1-1,23,16,8,19,11,5,93,76,54,30.32,30.26,30.19,10,10,10,9,5,,0.00,1,,340
2013-1-2,33,20,6,25,16,5,92,79,64,30.25,30.18,30.10,10,10,10,12,2,18,0.00,2,,222
2013-1-3,35,28,21,28,24,19,100,81,60,30.42,30.35,30.25,10,9,5,12,3,,0.00,5,,303
2013-1-4,41,28,14,28,23,12,100,78,53,30.40,30.31,30.23,10,10,7,15,2,21,0.00,0,,211
2013-1-5,42,35,28,32,29,23,87,77,66,30.23,30.15,30.05,10,10,10,17,4,25,0.00,4,,220
2013-1-6,37,30,23,27,21,19,86,73,48,30.38,30.30,30.15,10,10,10,16,7,23,0.00,2,,288
2013-1-7,50,39,28,30,25,21,80,63,37,30.28,30.15,30.05,10,10,5,17,7,28,0.00,0,,168
2013-1-8,53,42,30,34,31,27,87,69,41,30.17,30.03,29.96,10,10,10,15,5,23,0.00,1,,174
2013-1-9,57,42,26,36,30,25,100,78,33,30.43,30.35,30.19,10,10,7,9,2,,0.00,0,,56
2013-1-10,46,38,30,46,38,27,100,89,53,30.36,30.00,29.74,10,4,0,14,6,20,0.00,7,Fog-Rain,108
2013-1-11,60,54,48,50,47,43,100,78,55,29.75,29.66,29.58,10,8,2,18,8,29,0.00,4,Rain,176
2013-1-12,59,42,24,36,20,14,87,63,30,30.10,30.00,29.72,10,10,7,22,13,29,0.00,4,,317
2013-1-13,26,20,14,14,11,9,93,67,51,30.36,30.22,30.07,10,10,10,18,10,24,0.00,2,Snow,315
2013-1-14,32,21,10,19,12,7,93,77,40,30.52,30.43,30.37,10,10,10,9,1,,0.00,0,,28
2013-1-15,32,23,14,18,14,9,100,77,40,30.41,30.31,30.17,10,10,10,7,0,,0.00,1,,126
2013-1-16,44,29,14,28,20,12,100,77,45,30.18,30.08,30.01,10,10,10,13,2,17,0.00,1,,199
2013-1-17,44,36,28,30,26,23,100,76,46,30.48,30.39,30.19,10,10,10,13,3,,0.00,0,,334
2013-1-18,55,44,32,32,30,27,87,62,36,30.40,30.20,30.02,10,10,10,26,8,38,0.00,0,,184
2013-1-19,60,50,41,32,31,27,70,51,29,30.25,30.05,29.97,10,10,10,17,9,24,0.00,0,,263
2013-1-20,39,30,21,30,13,9,75,54,38,30.41,30.34,30.27,10,10,10,17,9,22,0.00,1,,3
2013-1-21,21,18,15,12,5,-6,86,59,33,30.45,30.41,30.38,10,10,10,16,7,20,0.00,4,,326
2013-1-22,28,21,14,10,6,1,68,55,40,30.44,30.35,30.29,10,10,10,8,5,,0.00,1,,84
2013-1-23,44,28,12,23,16,10,93,65,39,30.44,30.27,30.18,10,10,10,15,3,22,0.00,0,,350
2013-1-24,26,18,10,10,6,1,73,56,46,30.54,30.39,30.19,10,10,10,15,10,18,0.00,3,,76
2013-1-25,44,32,19,21,16,9,86,56,37,30.25,30.19,30.15,10,10,10,10,3,,0.00,2,,294
2013-1-26,44,32,21,27,24,19,93,72,49,30.32,30.23,30.11,10,10,10,10,3,,0.00,0,,106
2013-1-27,60,48,35,54,43,27,100,85,61,30.11,29.90,29.74,10,8,2,20,9,25,0.00,7,Rain,153
2013-1-28,73,60,46,61,54,46,100,79,50,29.87,29.78,29.66,10,7,1,22,8,28,0.00,5,Rain,189
2013-1-29,68,52,35,61,46,34,100,90,73,29.67,29.58,29.48,10,6,1,18,11,31,0.00,7,Rain-Thunderstorm,305
2013-1-30,35,29,23,32,23,16,100,80,64,29.97,29.75,29.49,10,7,1,24,13,33,0.00,8,Rain-Snow,302
2013-1-31,24,16,8,19,9,0,93,70,57,30.48,30.19,29.96,10,10,10,21,7,32,0.00,4,,301